カタログに戻る

USA 484

運用中軍事VLEO
NORAD 62553·PAYLOAD·🇺🇸 United States

打ち上げ Jan 10, 2025 から Vandenberg Space Force Base

Loading…

次のパス (今後24時間)

TLE

古いSource: Mike McCants

元期: Aug 26, 2026, 01:35 UTC

1 62553U 25005X   26238.06627079 0.00000000  00000-0  00000-0 0    04
2 62553  70.0144 226.3957 0002000 165.5945 194.4055 14.96713418    02

AllMySatでUSA 484をリアルタイム追跡

Download on the App Store